Change the Weather History Date:

Friday, March 21, 2014

  Actual Average Record
Temperature  
Mean Temperature 75 °F 73 °F  
Max Temperature 80 °F 82 °F 89 °F (1984)
Min Temperature 70 °F 65 °F 57 °F (1983)
Degree Days  
Heating Degree Days 0 0  
Month to date heating degree days 0 0  
Since 1 July heating degree days 0 0  
Cooling Degree Days 10 8  
Month to date cooling degree days 185 160  
Year to date cooling degree days 696 569  
Growing Degree Days 24 (Base 50)    
Moisture  
Dew Point 70 °F    
Average Humidity 87    
Maximum Humidity 100    
Minimum Humidity 74    
Precipitation  
Precipitation 0.58 in 0.07 in 1.73 in (1971)
Month to date precipitation 2.62 1.63  
Year to date precipitation 9.27 6.39  
Snow  
Snow 0.00 in - - ()
Month to date snowfall 0.0  
Since 1 July snowfall 0.0  
Snow Depth 0.00 in    
Sea Level Pressure  
Sea Level Pressure 30.05 in    
Wind  
Wind Speed 13 mph (NE)    
Max Wind Speed 23 mph    
Max Gust Speed 29 mph    
Visibility 9 miles    
Events Rain    
T = Trace of Precipitation, MM = Missing Value Source: NWS Daily Summary

Daily Weather History Graph

Daily Weather History Graph

Search for Another Location

Airport or City:

Trip Planner

Search our weather history database for the weather conditions in past years. The results will help you decide how hot, cold, wet, or windy it might be!

Date:

Astronomy

Mar. 21, 2014 Rise Set
Actual Time 6:28 AM HST 6:37 PM HST
Civil Twilight 6:06 AM HST 6:59 PM HST
Nautical Twilight 5:40 AM HST 7:25 PM HST
Astronomical Twilight 5:14 AM HST 7:50 PM HST
Moon 11:32 PM HST (3/21) 10:03 AM HST (3/21)
Length of Visible Light 12h 52m
Length of Day
12h 08m
Waning Gibbous, 73% of the Moon is Illuminated
Mar 21
Waning Gibbous
Mar 23
Last Quarter
Mar 30
New
Apr 6
First Quarter
Apr 14
Full

Hourly Weather History & Observations

Time (HST) Temp. Dew Point Humidity Pressure Visibility Wind Dir Wind Speed Gust Speed Precip Events Conditions
12:54 AM 73.9 °F 68.0 °F 82% 30.06 in 10.0 mi NE 9.2 mph - N/A   Overcast
1:54 AM 73.0 °F 68.0 °F 84% 30.05 in 10.0 mi ENE 6.9 mph - 0.00 in Rain Light Rain
2:54 AM 72.0 °F 68.0 °F 87% 30.03 in 10.0 mi ENE 4.6 mph - 0.00 in Rain Light Rain
3:27 AM 71.6 °F 69.8 °F 94% 30.01 in 10.0 mi NNE 17.3 mph - 0.00 in Rain Light Rain
3:54 AM 72.0 °F 69.1 °F 91% 30.02 in 8.0 mi NNE 15.0 mph - 0.00 in Rain Light Rain
4:17 AM 71.6 °F 69.8 °F 94% 30.01 in 10.0 mi NE 15.0 mph - 0.02 in Rain Light Rain
4:47 AM 71.6 °F 68.0 °F 88% 30.01 in 10.0 mi NE 12.7 mph - 0.02 in   Overcast
4:54 AM 72.0 °F 69.1 °F 91% 30.03 in 10.0 mi ENE 12.7 mph - 0.02 in   Mostly Cloudy
5:32 AM 71.6 °F 69.8 °F 94% 30.02 in 10.0 mi NE 9.2 mph - 0.00 in Rain Light Rain
5:54 AM 71.1 °F 69.1 °F 93% 30.04 in 7.0 mi NE 8.1 mph - 0.01 in Rain Light Rain
6:36 AM 69.8 °F 69.8 °F 100% 30.04 in 7.0 mi NE 9.2 mph - 0.07 in Rain Rain
6:54 AM 70.0 °F 69.1 °F 97% 30.06 in 7.0 mi NE 9.2 mph - 0.10 in Rain Light Rain
7:54 AM 72.0 °F 69.1 °F 91% 30.07 in 10.0 mi NE 13.8 mph 19.6 mph 0.02 in   Overcast
8:04 AM 71.6 °F 69.8 °F 94% 30.05 in 10.0 mi ENE 6.9 mph - 0.01 in Rain Light Rain
8:26 AM 73.4 °F 71.6 °F 94% 30.06 in 10.0 mi ENE 9.2 mph - 0.01 in Rain Light Rain
8:54 AM 73.0 °F 70.0 °F 90% 30.08 in 8.0 mi NE 11.5 mph - 0.02 in Rain Light Rain
9:02 AM 73.4 °F 69.8 °F 88% 30.06 in 10.0 mi ENE 6.9 mph - 0.00 in Rain Light Rain
9:20 AM 71.6 °F 69.8 °F 94% 30.07 in 2.0 mi ENE 11.5 mph 18.4 mph 0.00 in Rain Rain
9:44 AM 73.4 °F 71.6 °F 94% 30.06 in 2.0 mi NE 8.1 mph - 0.37 in Rain Rain
9:51 AM 73.4 °F 71.6 °F 94% 30.06 in 2.0 mi ENE 11.5 mph 18.4 mph 0.39 in Rain Light Rain
9:54 AM 73.0 °F 71.1 °F 93% 30.08 in 2.0 mi ENE 11.5 mph - 0.39 in Rain Light Rain
10:01 AM 73.4 °F 71.6 °F 94% 30.06 in 7.0 mi East 10.4 mph 20.7 mph 0.00 in Rain Light Rain
10:10 AM 73.4 °F 71.6 °F 94% 30.06 in 10.0 mi ENE 15.0 mph 21.9 mph 0.00 in   Overcast
10:54 AM 73.0 °F 68.0 °F 84% 30.08 in 10.0 mi NE 19.6 mph 24.2 mph 0.00 in   Mostly Cloudy
11:29 AM 73.4 °F 69.8 °F 88% 30.06 in 6.0 mi NE 16.1 mph 28.8 mph 0.00 in Rain Light Rain
11:54 AM 73.0 °F 70.0 °F 90% 30.07 in 10.0 mi NNE 18.4 mph - 0.01 in Rain Light Rain
12:33 PM 73.4 °F 68.0 °F 83% 30.04 in 10.0 mi NNE 16.1 mph - 0.00 in   Mostly Cloudy
12:54 PM 75.9 °F 71.1 °F 85% 30.05 in 10.0 mi ENE 12.7 mph 21.9 mph 0.00 in   Overcast
1:54 PM 78.1 °F 70.0 °F 76% 30.03 in 10.0 mi NE 18.4 mph 24.2 mph N/A   Mostly Cloudy
2:54 PM 77.0 °F 70.0 °F 79% 30.01 in 10.0 mi NE 17.3 mph - N/A   Overcast
3:54 PM 79.0 °F 69.1 °F 72% 30.01 in 10.0 mi NE 19.6 mph 26.5 mph 0.00 in   Mostly Cloudy
4:54 PM 77.0 °F 68.0 °F 74% 30.01 in 10.0 mi NE 18.4 mph 26.5 mph N/A   Mostly Cloudy
5:54 PM 75.0 °F 68.0 °F 79% 30.03 in 10.0 mi NE 12.7 mph - N/A   Mostly Cloudy
6:54 PM 73.9 °F 71.1 °F 91% 30.05 in 10.0 mi NNE 16.1 mph - 0.00 in   Mostly Cloudy
7:01 PM 75.2 °F 71.6 °F 89% 30.04 in 10.0 mi NNE 15.0 mph - N/A   Overcast
7:54 PM 73.0 °F 69.1 °F 87% 30.06 in 8.0 mi NE 10.4 mph 21.9 mph 0.01 in Rain Light Rain
8:54 PM 73.9 °F 69.1 °F 85% 30.07 in 10.0 mi NE 12.7 mph 21.9 mph 0.00 in   Mostly Cloudy
9:54 PM 73.9 °F 69.1 °F 85% 30.09 in 10.0 mi NE 13.8 mph 20.7 mph N/A   Overcast
10:54 PM 73.9 °F 69.1 °F 85% 30.09 in 10.0 mi NE 12.7 mph - 0.00 in   Overcast
11:54 PM 75.0 °F 70.0 °F 84% 30.09 in 10.0 mi NE 13.8 mph 20.7 mph 0.00 in   Overcast